Regional Weather Roundup
Issued by NWS Green Bay, WI

Home | Current Version | Previous Version | Text Only | Print | Product List | Glossary On
Versions: 1 2 3 4 5 6 7 8 9 10 11 12 13 14 15 16 17 18 19 20 21 22 23 24 25 26 27 28 29 30 31 32 33 34 35 36 37 38 39 40 41 42 43 44 45 46 47 48 49 50
000
ASUS43 KGRB 271759
RWRGRB

NORTH-CENTRAL AND NORTHEAST WISCONSIN REGIONAL WEATHER ROUNDUP
NATIONAL WEATHER SERVICE GREEN BAY WI
1200 PM CST FRI FEB 27 2015

WIZ005-009-010>012-018-019-271900-
NORTH CENTRAL WISCONSIN

CITY           SKY/WX    TMP DP  RH WIND       PRES   REMARKS
IRONWOOD       SUNNY     10  -6  48 W14       30.38S WCI  -5
MANITOWISH WTR NOT AVBL
ARBOR VITAE    NOT AVBL
EAGLE RIVER    NOT AVBL
LAND O LAKES   NOT AVBL
RHINELANDER    SUNNY     10  -5  50 W10       30.39S WCI  -4
PHILLIPS       NOT AVBL
ANTIGO         NOT AVBL
TOMAHAWK       NOT AVBL
MERRILL        NOT AVBL
$$

WIZ013-073-271900-
NORTHEAST WISCONSIN

CITY           SKY/WX    TMP DP  RH WIND       PRES   REMARKS
IRON MOUNTAIN  SUNNY     13  -5  44 W6        30.39S WCI   4
MARINETTE      SUNNY     12  -2  52 W9        30.47S WCI   0
$$

WIZ017-030-035>037-045-271900-
CENTRAL WISCONSIN

CITY           SKY/WX    TMP DP  RH WIND       PRES   REMARKS
MEDFORD        NOT AVBL
WAUSAU         SUNNY      7  -9  48 W12       30.46F WCI  -8
MOSINEE        SUNNY      9  -8  47 W10G17    30.49R WCI  -6
MARSHFIELD     SUNNY      8  -7  50 W9        30.49S WCI  -5
WISC RAPIDS    SUNNY     10  -8  44 W10       30.53S WCI  -4
STEVENS POINT  NOT AVBL
WAUPACA        NOT AVBL
SHAWANO        NOT AVBL
CLINTONVILLE   NOT AVBL
$$

WIZ038-039-048-051-271900-
FOX VALLEY

CITY           SKY/WX    TMP DP  RH WIND       PRES   REMARKS
NWS GREEN BAY  SUNNY     14  -2  49 W13       30.52S WCI   0
APPLETON       SUNNY     12  -4  48 W12       30.52R WCI  -2
OSHKOSH        SUNNY     12  -4  48 W10       30.53S WCI  -1
FOND DU LAC    SUNNY     13  -5  44 SW12      30.54F WCI  -1
$$

WIZ022-050-052-271900-
EAST CENTRAL WISCONSIN

CITY           SKY/WX    TMP DP  RH WIND       PRES   REMARKS
STURGEON BAY   SUNNY     12  -6  44 SW13      30.51S WCI  -3
MANITOWOC      NOT AVBL
SHEBOYGAN      SUNNY     13  -4  46 W13       30.54S WCI  -2
$$

LMZ563-521-522-541>543-271900-
LAKESHORE

STATION/POSITION TIME  TEMP    WIND        PRES    VSBY  WAVE
                       AIR SEA DIR/SP/G                  HT/PER
                 (UTC) (F)     (DEG/KT/KT) (MB)    (MI)  (FT/S)
SHEBOYGAN LKSHOR 1700   11     280/ 12/ 15 1036.3R
KEWAUNEE LKSHORE 1700   12     270/ 12/ 16 1032.5R
NORTHPORT PIER   1700   10     270/  5/ 12 1032.2S
CHAMBERS ISLAND  1700    9     180/  7/ 11 1032.2S
MENOMINEE LKSHOR 1700   13     250/  7     1032.7F
$$



USA.gov is the U.S. government's official web portal to all federal, state and local government web resources and services.